• In Uzbekistan
  • List of Countries
  • For 7 days
  • Water Temperature
  • Satellite Maps
  • Weather Map
  • Weather Widgets
  • user-avatar
    Login

    Hourly Weather Turowszczyzna

    Today, 24 September, Monday

    Time Temperature Precipitation Wind Pressure Humidity
    00:00 +10°C° 1.4 mm 4 mps 738 mmHg 91%
    01:00 +10°C° 1.4 mm 4 mps 737 mmHg 91%
    02:00 +9°C° 1.4 mm 5 mps 736 mmHg 92%
    03:00 +9°C° 1.7 mm 5 mps 736 mmHg 92%
    04:00 +9°C° 1.7 mm 5 mps 735 mmHg 93%
    05:00 +9°C° 1.7 mm 6 mps 735 mmHg 93%
    06:00 +9°C° 0.4 mm 7 mps 736 mmHg 91%
    07:00 +7°C° 0.4 mm 8 mps 737 mmHg 88%
    08:00 +6°C° 0.4 mm 9 mps 738 mmHg 85%
    09:00 +7°C° 0.2 mm 8 mps 739 mmHg 82%
    10:00 +9°C° 0.2 mm 8 mps 740 mmHg 79%
    11:00 +10°C° 0.2 mm 8 mps 741 mmHg 76%
    12:00 +10°C° 0.5 mm 8 mps 742 mmHg 74%
    13:00 +10°C° 0.5 mm 8 mps 742 mmHg 71%
    14:00 +11°C° 0.5 mm 8 mps 743 mmHg 69%
    15:00 +11°C° 0.2 mm 8 mps 743 mmHg 68%
    16:00 +10°C° 0.2 mm 7 mps 744 mmHg 68%
    17:00 +10°C° 0.2 mm 7 mps 744 mmHg 68%
    18:00 +9°C° 0.2 mm 7 mps 745 mmHg 71%
    19:00 +8°C° 0.2 mm 7 mps 745 mmHg 75%
    20:00 +8°C° 0.2 mm 6 mps 746 mmHg 79%
    21:00 +7°C° 0 mm 6 mps 746 mmHg 80%
    22:00 +7°C° 0 mm 6 mps 747 mmHg 80%
    23:00 +5°C° 0 mm 6 mps 748 mmHg 81%

    Tomorrow, 25 September, Tuesday

    Time Temperature Precipitation Wind Pressure Humidity
    00:00 +5°C° 0 mm 6 mps 749 mmHg 82%
    01:00 +4°C° 0 mm 6 mps 749 mmHg 82%
    02:00 +5°C° 0 mm 5 mps 750 mmHg 82%
    03:00 +3°C° 0 mm 5 mps 751 mmHg 82%
    04:00 +3°C° 0 mm 5 mps 751 mmHg 82%
    05:00 +3°C° 0 mm 5 mps 752 mmHg 82%
    06:00 +3°C° 0 mm 5 mps 752 mmHg 80%
    07:00 +4°C° 0 mm 6 mps 753 mmHg 78%
    08:00 +4°C° 0 mm 6 mps 753 mmHg 75%
    09:00 +7°C° 0.1 mm 6 mps 754 mmHg 70%
    10:00 +8°C° 0.1 mm 7 mps 754 mmHg 64%
    11:00 +9°C° 0.1 mm 7 mps 755 mmHg 58%
    12:00 +9°C° 0.2 mm 7 mps 755 mmHg 56%
    13:00 +10°C° 0.2 mm 7 mps 755 mmHg 54%
    14:00 +10°C° 0.2 mm 7 mps 755 mmHg 52%
    15:00 +10°C° 0.1 mm 7 mps 756 mmHg 54%
    16:00 +9°C° 0.1 mm 6 mps 756 mmHg 56%
    17:00 +9°C° 0.1 mm 6 mps 757 mmHg 57%
    18:00 +8°C° 0 mm 5 mps 757 mmHg 62%
    19:00 +7°C° 0 mm 5 mps 758 mmHg 66%
    20:00 +6°C° 0 mm 4 mps 758 mmHg 71%
    21:00 +5°C° 0 mm 4 mps 759 mmHg 73%
    22:00 +5°C° 0 mm 4 mps 760 mmHg 74%
    23:00 +4°C° 0 mm 4 mps 760 mmHg 76%

    Day after tomorrow, 26 September, Wednesday

    Time Temperature Precipitation Wind Pressure Humidity
    00:00 +4°C° 0 mm 3 mps 761 mmHg 78%
    01:00 +3°C° 0 mm 3 mps 761 mmHg 81%
    02:00 +4°C° 0 mm 2 mps 761 mmHg 83%
    03:00 +3°C° 0 mm 2 mps 761 mmHg 84%
    04:00 +3°C° 0 mm 2 mps 761 mmHg 85%
    05:00 +3°C° 0 mm 2 mps 762 mmHg 86%
    06:00 +4°C° 0 mm 2 mps 762 mmHg 82%
    07:00 +3°C° 0 mm 3 mps 762 mmHg 78%
    08:00 +4°C° 0 mm 3 mps 762 mmHg 73%
    09:00 +7°C° 0 mm 3 mps 762 mmHg 65%
    10:00 +8°C° 0 mm 4 mps 761 mmHg 56%
    11:00 +9°C° 0 mm 5 mps 761 mmHg 48%
    12:00 +10°C° 0 mm 5 mps 760 mmHg 46%
    13:00 +11°C° 0 mm 6 mps 760 mmHg 44%
    14:00 +13°C° 0 mm 6 mps 759 mmHg 42%
    15:00 +11°C° 0 mm 6 mps 758 mmHg 46%
    16:00 +11°C° 0 mm 6 mps 758 mmHg 49%
    17:00 +12°C° 0 mm 5 mps 757 mmHg 52%
    18:00 +10°C° 0 mm 5 mps 757 mmHg 54%
    19:00 +10°C° 0 mm 6 mps 756 mmHg 56%
    20:00 +9°C° 0 mm 6 mps 756 mmHg 59%
    21:00 +10°C° 0 mm 6 mps 756 mmHg 58%
    22:00 +10°C° 0 mm 6 mps 755 mmHg 57%
    23:00 +10°C° 0 mm 7 mps 755 mmHg 56%

    27 September, Thursday

    Time Temperature Precipitation Wind Pressure Humidity
    00:00 +9°C° 0.2 mm 7 mps 754 mmHg 60%
    01:00 +9°C° 0.2 mm 7 mps 754 mmHg 64%
    02:00 +9°C° 0.2 mm 7 mps 753 mmHg 69%
    03:00 +9°C° 0.1 mm 7 mps 753 mmHg 68%
    04:00 +9°C° 0.1 mm 7 mps 752 mmHg 68%
    05:00 +9°C° 0.1 mm 7 mps 752 mmHg 68%
    06:00 +10°C° 0 mm 7 mps 752 mmHg 67%
    07:00 +10°C° 0 mm 7 mps 751 mmHg 67%
    08:00 +10°C° 0 mm 7 mps 751 mmHg 66%
    09:00 +11°C° 0 mm 7 mps 751 mmHg 66%
    10:00 +13°C° 0 mm 8 mps 751 mmHg 65%
    11:00 +15°C° 0 mm 8 mps 751 mmHg 65%
    12:00 +16°C° 0 mm 8 mps 751 mmHg 64%
    13:00 +17°C° 0 mm 7 mps 751 mmHg 64%
    14:00 +18°C° 0 mm 7 mps 751 mmHg 63%
    15:00 +18°C° 0 mm 7 mps 751 mmHg 65%
    16:00 +17°C° 0 mm 6 mps 750 mmHg 67%
    17:00 +17°C° 0 mm 5 mps 750 mmHg 69%
    18:00 +17°C° 0 mm 5 mps 750 mmHg 71%
    19:00 +16°C° 0 mm 5 mps 750 mmHg 74%
    20:00 +15°C° 0 mm 5 mps 750 mmHg 76%
    21:00 +15°C° 0 mm 5 mps 750 mmHg 78%
    22:00 +14°C° 0 mm 5 mps 750 mmHg 81%
    23:00 +14°C° 0 mm 4 mps 749 mmHg 83%

    28 September, Friday

    Time Temperature Precipitation Wind Pressure Humidity
    00:00 +14°C° 0 mm 5 mps 749 mmHg 84%
    01:00 +14°C° 0 mm 5 mps 748 mmHg 84%
    02:00 +14°C° 0 mm 6 mps 748 mmHg 85%
    03:00 +14°C° 0 mm 6 mps 748 mmHg 85%
    04:00 +14°C° 0 mm 6 mps 747 mmHg 84%
    05:00 +14°C° 0 mm 6 mps 747 mmHg 84%
    06:00 +14°C° 0.3 mm 6 mps 747 mmHg 85%
    07:00 +14°C° 0.3 mm 6 mps 748 mmHg 86%
    08:00 +14°C° 0.3 mm 6 mps 748 mmHg 86%
    09:00 +14°C° 0.1 mm 6 mps 748 mmHg 83%
    10:00 +14°C° 0.1 mm 5 mps 749 mmHg 80%
    11:00 +14°C° 0.1 mm 5 mps 749 mmHg 78%
    12:00 +15°C° 0 mm 5 mps 749 mmHg 70%
    13:00 +15°C° 0 mm 4 mps 750 mmHg 62%
    14:00 +17°C° 0 mm 4 mps 750 mmHg 54%
    15:00 +17°C° 0 mm 4 mps 750 mmHg 54%
    16:00 +16°C° 0 mm 3 mps 750 mmHg 55%
    17:00 +16°C° 0 mm 2 mps 750 mmHg 55%
    18:00 +14°C° 0 mm 2 mps 750 mmHg 58%
    19:00 +13°C° 0 mm 2 mps 750 mmHg 61%
    20:00 +12°C° 0 mm 2 mps 751 mmHg 64%
    21:00 +12°C° 0 mm 2 mps 751 mmHg 65%
    22:00 +10°C° 0 mm 2 mps 751 mmHg 65%
    23:00 +10°C° 0 mm 2 mps 751 mmHg 66%

    29 September, Saturday

    Time Temperature Precipitation Wind Pressure Humidity
    00:00 +10°C° 0 mm 2 mps 752 mmHg 65%
    01:00 +10°C° 0 mm 2 mps 752 mmHg 65%
    02:00 +10°C° 0 mm 2 mps 752 mmHg 65%
    03:00 +9°C° 0 mm 2 mps 752 mmHg 67%
    04:00 +9°C° 0 mm 2 mps 752 mmHg 68%
    05:00 +8°C° 0 mm 2 mps 752 mmHg 70%
    06:00 +8°C° 0 mm 3 mps 753 mmHg 70%
    07:00 +8°C° 0 mm 3 mps 753 mmHg 71%
    08:00 +8°C° 0 mm 3 mps 754 mmHg 72%
    09:00 +9°C° 0 mm 3 mps 754 mmHg 63%
    10:00 +10°C° 0 mm 4 mps 755 mmHg 54%
    11:00 +11°C° 0 mm 4 mps 755 mmHg 45%
    12:00 +12°C° 0 mm 4 mps 755 mmHg 42%
    13:00 +12°C° 0 mm 4 mps 755 mmHg 39%
    14:00 +13°C° 0 mm 4 mps 756 mmHg 36%
    15:00 +12°C° 0 mm 4 mps 756 mmHg 39%
    16:00 +12°C° 0 mm 3 mps 756 mmHg 42%
    17:00 +12°C° 0 mm 2 mps 756 mmHg 44%
    18:00 +10°C° 0 mm 2 mps 757 mmHg 48%
    19:00 +9°C° 0 mm 2 mps 757 mmHg 51%
    20:00 +8°C° 0 mm 1 mps 757 mmHg 55%
    21:00 +8°C° 0 mm 1 mps 758 mmHg 56%
    22:00 +7°C° 0 mm 1 mps 758 mmHg 58%
    23:00 +7°C° 0 mm 1 mps 758 mmHg 59%
    Show more